EN

Hourly Weather Lujan

Today, 24 November, Tuesday

Time Temperature Precipitation Wind Pressure Humidity
00:00 +25°C° 0 mm 5 mps 754 mmHg 62%
01:00 +25°C° 0 mm 5 mps 753 mmHg 65%
02:00 +23°C° 0 mm 5 mps 753 mmHg 67%
03:00 +23°C° 0 mm 4 mps 753 mmHg 70%
04:00 +23°C° 0 mm 4 mps 754 mmHg 72%
05:00 +22°C° 0 mm 4 mps 754 mmHg 75%
06:00 +23°C° 0 mm 4 mps 754 mmHg 71%
07:00 +26°C° 0 mm 3 mps 755 mmHg 67%
08:00 +27°C° 0 mm 2 mps 755 mmHg 62%
09:00 +28°C° 0 mm 2 mps 755 mmHg 60%
10:00 +29°C° 0 mm 2 mps 754 mmHg 58%
11:00 +29°C° 0 mm 3 mps 754 mmHg 56%
12:00 +30°C° 0 mm 3 mps 754 mmHg 55%
13:00 +30°C° 0 mm 4 mps 753 mmHg 54%
14:00 +32°C° 0 mm 5 mps 753 mmHg 52%
15:00 +32°C° 0.1 mm 4 mps 752 mmHg 53%
16:00 +30°C° 0.1 mm 4 mps 752 mmHg 54%
17:00 +30°C° 0.1 mm 3 mps 751 mmHg 55%
18:00 +28°C° 0.1 mm 4 mps 752 mmHg 61%
19:00 +26°C° 0.1 mm 5 mps 752 mmHg 67%
20:00 +23°C° 0.1 mm 5 mps 752 mmHg 73%
21:00 +23°C° 0.4 mm 5 mps 752 mmHg 78%
22:00 +22°C° 0.4 mm 4 mps 752 mmHg 82%
23:00 +21°C° 0.4 mm 4 mps 752 mmHg 87%

Tomorrow, 25 November, Wednesday

Time Temperature Precipitation Wind Pressure Humidity
00:00 +21°C° 0.7 mm 3 mps 752 mmHg 88%
01:00 +21°C° 0.7 mm 3 mps 752 mmHg 90%
02:00 +21°C° 0.7 mm 2 mps 752 mmHg 92%
03:00 +21°C° 0.9 mm 2 mps 752 mmHg 93%
04:00 +20°C° 0.9 mm 2 mps 752 mmHg 94%
05:00 +20°C° 0.9 mm 3 mps 752 mmHg 95%
06:00 +22°C° 0.3 mm 3 mps 753 mmHg 90%
07:00 +24°C° 0.3 mm 3 mps 753 mmHg 84%
08:00 +26°C° 0.3 mm 3 mps 753 mmHg 79%
09:00 +27°C° 0 mm 3 mps 753 mmHg 70%
10:00 +29°C° 0 mm 4 mps 753 mmHg 61%
11:00 +32°C° 0 mm 4 mps 753 mmHg 52%
12:00 +33°C° 0 mm 4 mps 753 mmHg 47%
13:00 +33°C° 0 mm 4 mps 752 mmHg 41%
14:00 +34°C° 0 mm 4 mps 752 mmHg 35%
15:00 +33°C° 0 mm 4 mps 752 mmHg 36%
16:00 +33°C° 0 mm 3 mps 752 mmHg 36%
17:00 +31°C° 0 mm 3 mps 752 mmHg 37%
18:00 +29°C° 0 mm 3 mps 753 mmHg 38%
19:00 +26°C° 0 mm 3 mps 753 mmHg 39%
20:00 +24°C° 0 mm 3 mps 754 mmHg 41%
21:00 +22°C° 0 mm 3 mps 754 mmHg 39%
22:00 +23°C° 0 mm 2 mps 754 mmHg 36%
23:00 +21°C° 0 mm 2 mps 755 mmHg 34%

Day after tomorrow, 26 November, Thursday

Time Temperature Precipitation Wind Pressure Humidity
00:00 +22°C° 0 mm 1 mps 755 mmHg 34%
01:00 +21°C° 0 mm 1 mps 755 mmHg 33%
02:00 +19°C° 0 mm 0 mps 755 mmHg 33%
03:00 +20°C° 0 mm 1 mps 755 mmHg 35%
04:00 +18°C° 0 mm 2 mps 756 mmHg 36%
05:00 +17°C° 0 mm 3 mps 756 mmHg 38%
06:00 +19°C° 0 mm 3 mps 757 mmHg 35%
07:00 +21°C° 0 mm 4 mps 757 mmHg 33%
08:00 +23°C° 0 mm 4 mps 758 mmHg 30%
09:00 +25°C° 0 mm 4 mps 758 mmHg 28%
10:00 +26°C° 0 mm 4 mps 758 mmHg 25%
11:00 +28°C° 0 mm 4 mps 758 mmHg 23%
12:00 +29°C° 0 mm 4 mps 758 mmHg 22%
13:00 +29°C° 0 mm 4 mps 757 mmHg 22%
14:00 +30°C° 0 mm 5 mps 757 mmHg 22%
15:00 +29°C° 0 mm 4 mps 757 mmHg 25%
16:00 +29°C° 0 mm 4 mps 757 mmHg 28%
17:00 +28°C° 0 mm 4 mps 756 mmHg 32%
18:00 +26°C° 0 mm 4 mps 757 mmHg 35%
19:00 +24°C° 0 mm 3 mps 757 mmHg 38%
20:00 +20°C° 0 mm 3 mps 758 mmHg 41%
21:00 +20°C° 0 mm 3 mps 758 mmHg 45%
22:00 +19°C° 0 mm 3 mps 758 mmHg 50%
23:00 +19°C° 0 mm 3 mps 759 mmHg 54%

27 November, Friday

Time Temperature Precipitation Wind Pressure Humidity
00:00 +19°C° 0 mm 3 mps 759 mmHg 53%
01:00 +19°C° 0 mm 3 mps 759 mmHg 51%
02:00 +20°C° 0 mm 3 mps 758 mmHg 50%
03:00 +19°C° 0 mm 3 mps 759 mmHg 51%
04:00 +18°C° 0 mm 4 mps 759 mmHg 52%
05:00 +18°C° 0 mm 4 mps 759 mmHg 53%
06:00 +19°C° 0 mm 4 mps 759 mmHg 53%
07:00 +21°C° 0 mm 4 mps 759 mmHg 52%
08:00 +23°C° 0 mm 5 mps 759 mmHg 51%
09:00 +26°C° 0 mm 5 mps 758 mmHg 49%
10:00 +28°C° 0 mm 5 mps 758 mmHg 46%
11:00 +32°C° 0 mm 5 mps 758 mmHg 43%
12:00 +33°C° 0 mm 5 mps 757 mmHg 39%
13:00 +34°C° 0 mm 5 mps 756 mmHg 34%
14:00 +36°C° 0 mm 5 mps 755 mmHg 30%
15:00 +35°C° 0 mm 5 mps 755 mmHg 31%
16:00 +35°C° 0 mm 5 mps 754 mmHg 32%
17:00 +34°C° 0 mm 5 mps 754 mmHg 33%
18:00 +32°C° 0 mm 5 mps 754 mmHg 36%
19:00 +29°C° 0 mm 5 mps 754 mmHg 39%
20:00 +27°C° 0 mm 5 mps 754 mmHg 42%
21:00 +27°C° 0 mm 5 mps 754 mmHg 45%
22:00 +27°C° 0 mm 5 mps 755 mmHg 48%
23:00 +27°C° 0 mm 5 mps 755 mmHg 51%

28 November, Saturday

Time Temperature Precipitation Wind Pressure Humidity
00:00 +26°C° 0 mm 5 mps 755 mmHg 56%
01:00 +26°C° 0 mm 5 mps 755 mmHg 61%
02:00 +25°C° 0 mm 5 mps 755 mmHg 66%
03:00 +23°C° 0.6 mm 4 mps 755 mmHg 74%
04:00 +22°C° 0.6 mm 3 mps 755 mmHg 82%
05:00 +21°C° 0.6 mm 2 mps 755 mmHg 90%
06:00 +22°C° 1.9 mm 1 mps 756 mmHg 89%
07:00 +22°C° 1.9 mm 1 mps 756 mmHg 88%
08:00 +22°C° 1.9 mm 1 mps 756 mmHg 87%
09:00 +24°C° 0.2 mm 2 mps 756 mmHg 83%
10:00 +25°C° 0.2 mm 2 mps 755 mmHg 78%
11:00 +26°C° 0.2 mm 3 mps 754 mmHg 73%
12:00 +25°C° 1.5 mm 2 mps 754 mmHg 79%
13:00 +24°C° 1.5 mm 1 mps 754 mmHg 84%
14:00 +23°C° 1.5 mm 1 mps 753 mmHg 89%
15:00 +23°C° 0.6 mm 1 mps 753 mmHg 90%
16:00 +23°C° 0.6 mm 2 mps 752 mmHg 90%
17:00 +23°C° 0.6 mm 2 mps 752 mmHg 90%
18:00 +21°C° 0 mm 2 mps 752 mmHg 91%
19:00 +21°C° 0 mm 2 mps 753 mmHg 92%
20:00 +20°C° 0 mm 2 mps 753 mmHg 93%
21:00 +20°C° 0 mm 2 mps 753 mmHg 94%
22:00 +20°C° 0 mm 1 mps 753 mmHg 94%
23:00 +20°C° 0 mm 1 mps 753 mmHg 94%

29 November, Sunday

Time Temperature Precipitation Wind Pressure Humidity
00:00 +20°C° 0 mm 1 mps 753 mmHg 95%
01:00 +19°C° 0 mm 1 mps 753 mmHg 95%
02:00 +19°C° 0 mm 1 mps 752 mmHg 95%
03:00 +19°C° 0 mm 1 mps 753 mmHg 95%
04:00 +18°C° 0 mm 2 mps 753 mmHg 95%
05:00 +18°C° 0 mm 2 mps 754 mmHg 95%
06:00 +20°C° 0 mm 2 mps 754 mmHg 88%
07:00 +23°C° 0 mm 1 mps 754 mmHg 81%
08:00 +25°C° 0 mm 1 mps 754 mmHg 74%
09:00 +27°C° 0 mm 2 mps 754 mmHg 64%
10:00 +29°C° 0 mm 2 mps 754 mmHg 55%
11:00 +31°C° 0 mm 3 mps 754 mmHg 45%
12:00 +31°C° 0 mm 3 mps 754 mmHg 45%
13:00 +33°C° 0 mm 4 mps 754 mmHg 45%
14:00 +33°C° 0 mm 5 mps 754 mmHg 45%
15:00 +33°C° 0 mm 4 mps 754 mmHg 46%
16:00 +31°C° 0 mm 3 mps 754 mmHg 48%
17:00 +31°C° 0 mm 3 mps 754 mmHg 49%
18:00 +29°C° 0 mm 2 mps 755 mmHg 53%
19:00 +27°C° 0 mm 2 mps 755 mmHg 58%
20:00 +25°C° 0 mm 2 mps 755 mmHg 62%
21:00 +24°C° 0 mm 3 mps 756 mmHg 63%
22:00 +22°C° 0 mm 5 mps 757 mmHg 64%
23:00 +22°C° 0 mm 6 mps 757 mmHg 64%
Show more